Simultaneous Nadir Overpasses (SNOs) Predictions

Prediction of SNOs between LANDSAT-8 and METOP-B Satellite Orbit:

Table of predicted SNOs for the next 14.0 days since TLE Epoch: 7/1/2023
Index Date (LANDSAT-8) Time (LANDSAT-8) Lat,Lon (LANDSAT-8) SZA (LANDSAT-8 ) Date (METOP-B) Time (METOP-B) Lat,Lon (METOP-B) SZA (METOP-B ) Distance(km) Time Diff (sec)
1 07/02/2023 21:43:51 -81.21, 75.36 119.61 07/02/2023 21:43:24 -81.20, 75.35 119.63 0.23 27
2 07/02/2023 22:33:17 81.21,-116.88 60.41 07/02/2023 22:34:03 81.22,-116.73 60.46 2.69 46
3 07/05/2023 17:18:08 -81.21, 141.84 119.38 07/05/2023 17:17:44 -81.21, 141.83 119.39 0.35 24
4 07/05/2023 18:07:34 81.21, -50.42 60.64 07/05/2023 18:08:23 81.22, -50.27 60.69 2.73 49
5 07/08/2023 12:52:25 -81.20,-151.81 119.11 07/08/2023 12:52:04 -81.21,-151.75 119.11 1.11 21
6 07/08/2023 13:41:50 81.23, 16.26 60.96 07/08/2023 13:42:43 81.22, 16.12 60.97 2.49 53
7 07/11/2023 08:26:40 -81.21, -85.24 118.75 07/11/2023 08:26:23 -81.21, -85.39 118.78 2.72 17
8 07/11/2023 09:16:05 81.24, 82.81 61.31 07/11/2023 09:17:01 81.23, 82.85 61.34 0.77 56
9 07/14/2023 04:00:56 -81.21, -18.80 118.37 07/14/2023 04:00:42 -81.21, -18.71 118.36 1.53 14



Historial Predications of SNOs between LANDSAT-8 and METOP-B
